Regional Weather Roundup
Issued by NWS

Home | Current Version | Previous Version | Graphics & Text | Print | Product List | Glossary On
Versions: 1 2 3 4 5 6 7 8 9 10 11 12 13 14 15 16 17 18 19 20 21 22 23 24 25 26 27 28 29 30 31 32 33 34 35 36 37 38 39 40 41 42 43 44 45 46 47 48 49 50
000
ASUS43 KLMK 011902
RWRKY
KENTUCKY REGIONAL WEATHER ROUNDUP
NATIONAL WEATHER SERVICE LOUISVILLE KY
300 PM EDT WED APR 01 2015

NOTE "FAIR" INDICATES FEW OR NO CLOUDS BELOW 12,000 FEET
WITH NO SIGNIFICANT WEATHER AND/OR OBSTRUCTIONS TO VISIBILITY.

KYZ001>023-026-027-061>063-070>075-012000-
WESTERN AND SOUTH CENTRAL KENTUCKY

CITY           SKY/WX    TMP DP  RH WIND       PRES   REMARKS
PADUCAH        SUNNY     76  37  24 SE8       30.02F
HENDERSON      SUNNY     70  37  30 E8        30.05F
OWENSBORO      SUNNY     71  37  28 S9        30.07F
HOPKINSVILLE   SUNNY     72  36  26 E10       30.06F
BOWLING GREEN  SUNNY     70  36  28 E12       30.09F
GLASGOW        NOT AVBL
$$

KYZ024-025-028>034-038-045-046-053-012000-
NORTH CENTRAL KENTUCKY

CITY           SKY/WX    TMP DP  RH WIND       PRES   REMARKS
LOUISVILLE/SDF PTSUNNY   68  32  26 SE9       30.10F
LOUISVILLE/LOU SUNNY     65  33  30 MISG      30.10F
FORT KNOX      SUNNY     68  29  23 SE9       30.07F
$$

KYZ035>037-039>044-047>052-055>060-089>105-012000-
NORTHEAST KENTUCKY

CITY           SKY/WX    TMP DP  RH WIND       PRES   REMARKS
LEXINGTON      SUNNY     63  30  28 SE8       30.14F
COVINGTON      MOSUNNY   64  31  28 VRB6      30.11F
FRANKFORT      SUNNY     64  30  27 E9        30.12F
$$

KYZ054-064>069-076>088-106>120-012000-
SOUTHEAST KENTUCKY

CITY           SKY/WX    TMP DP  RH WIND       PRES   REMARKS
JACKSON        SUNNY     63  22  20 CALM      30.14F
LONDON         SUNNY     66  22  18 VRB5      30.12F
SOMERSET       NOT AVBL
MIDDLESBORO    SUNNY     69  24  18 S7        30.10F
MONTICELLO     CLEAR     69  32  25 NE8       30.13F
$$




USA.gov is the U.S. government's official web portal to all federal, state and local government web resources and services.